User: anonymous   Login
Location: Deuil
(48.9767°N, 2.3272°E)
Time: 23:34:03
(UTC+00:00)
Language:

STARLINK-2337 - Orbit

View from above orbital plane
View from above orbital plane
View from above satellite
View from above satellite

Ground track
Ground track

The orbit data is extracted from the following two-line orbital elements,

1 47880U 21021W   22222.56075542 -.00003970  00000-0 -24791-3 0  9994
2 47880  53.0554  29.5578 0001496  80.2564 279.8594 15.06379012 78555
Epoch (UTC): 10 August 2022 13:27:29
Eccentricity: 0.0001496
inclination: 53.0554°
perigee height: 546 km
apogee height: 548 km
right ascension of ascending node: 29.5578°
argument of perigee: 80.2564°
revolutions per day: 15.06379012
mean anomaly at epoch: 279.8594°
orbit number at epoch: 7855

The dashed part of the orbit path shows where the satellite is in the earth's shadow,  

DLR